CZ-2D DEB, 35273

Orbit data source: Space-Track

CZ-2D DEB, 35273 is space debris in SSO originally from a launch on Tue, 05 Jul 2005 UTC launched from the Jiuquan Satellite Launch Center, China (JSC). Debris objects in space refer to the collection of defunct objects orbiting the Earth. Examples of debris include non-operational satellites, rocket bodies, and fragments generated from explosions, collisions, or faulty payload assembly.

Loading next visibility...
Identifier
35273, 2005-024M
Orbit
SSO
Last TLE update
19 hours ago
Origin
Manufacturer
Unknown
Mission
Spacecraft
Bus & Motor
Unknown
Mass
Unknown
Launch date (UTC)
2005-07-05 (20 years ago)
Launch vehicle
Unknown
Launch site
Jiuquan Satellite Launch Center, China (JSC)
Object type
Payload
Rocket body
Debris
Shape & HBR
Unknown
Radar Cross Section
Small (<0.1 m²)

Expand to show TLE details & history

TLE from 19 hours ago
0 CZ-2D DEB
1 35273U 05024M   25183.33433023  .00026784  00000-0  31167-3 0  9999
2 35273  97.1743 214.4168 0003074 307.1199  52.9778 15.61680024123617
Epoch: 2025-07-02T08:01Z
TLE epoch observation values (Epoch: 2025-07-02T08:01:26.131Z)
Latitude
-0.00006°
Longitude
173.44101°
Altitude
384.706 km
Speed
7.68 km/s
True Right ascension
14h 17m 40s
True Declination
0° 00' 00"
Sunlit
Object was in full shadow at epoch
Visualization orbit readout
Latitude
34.01367°
Longitude
-0.9082°
Altitude
389.252 km
Speed
7.679 km/s
Apparent Right ascension
02h 45m 19s
Apparent Declination
-1° 39' 51"
Sunlit
Object is in daylight
Visualization observer readout
Local Sidereal Time
14:51:07
Azimuth
2.339° NNE
Elevation
-51.726°
Doppler factor
1
Orbital elements
Apogee altitude
381.782 km
Perigee altitude
377.627 km
Semi-major axis
6,757.841 km
Eccentricity
0.00031
Inclination
97.1743°
RAAN
214.4168°
Arg. of periapsis
307.1199°
True anomaly
Unknown
Mean anomaly
52.9778°
Eccentric anomaly
Unknown
Mean motion
3.90689 °/min
Orbital period
92.14 mins
BSTAR
0.00031167
Loading maneuver chart data...
Loading SW <> Apogee altitude chart data...
Loading historical data...
Loading historical data...
Loading historical data...
Loading historical data...
Loading historical data...
Loading historical data...
Loading historical data...

CZ-2D DEB Visibility forecast

Observer location: undefined°, undefined°

Span
Click to sort rows by Start time (UTC) header in descending order
Start Az.
Max El. time (UTC)
Max El. Az.
Max El.
End time (UTC)
End Az.
5 mins2025-07-03 15:19:59.606Z350.78° N2025-07-03 15:21:59.606Z302.22° NW29.974°2025-07-03 15:24:59.606Z217.565° SW
|